When you browse on this site, cookies collect data to enhance your experience and personalize the content and advertising you see.
Visit our Privacy Policy to learn more. By continuing to use the site, you agree to this use of cookies and data.
  • In Portugal
  • List of Countries
  • For 7 days
  • Water Temperature
  • Satellite Maps
  • Weather Map
  • Weather Widgets
  • user-avatar
    Login

    Hourly Weather Lipova

    Today, 19 July, Friday

    Time Temperature Precipitation Wind Pressure Humidity
    00:00 +14°C° 0 mm 1 mps 744 mmHg 72%
    01:00 +13°C° 0 mm 1 mps 744 mmHg 75%
    02:00 +13°C° 0 mm 1 mps 744 mmHg 79%
    03:00 +13°C° 0 mm 2 mps 744 mmHg 84%
    04:00 +12°C° 0 mm 2 mps 744 mmHg 88%
    05:00 +14°C° 0 mm 2 mps 744 mmHg 83%
    06:00 +16°C° 0 mm 2 mps 744 mmHg 77%
    07:00 +17°C° 0 mm 2 mps 744 mmHg 71%
    08:00 +19°C° 0 mm 2 mps 744 mmHg 65%
    09:00 +21°C° 0 mm 2 mps 744 mmHg 58%
    10:00 +24°C° 0 mm 3 mps 743 mmHg 51%
    11:00 +25°C° 0 mm 3 mps 743 mmHg 48%
    12:00 +27°C° 0 mm 2 mps 743 mmHg 46%
    13:00 +28°C° 0 mm 2 mps 743 mmHg 43%
    14:00 +28°C° 0 mm 2 mps 743 mmHg 43%
    15:00 +29°C° 0 mm 2 mps 743 mmHg 43%
    16:00 +29°C° 0 mm 2 mps 743 mmHg 43%
    17:00 +27°C° 0.1 mm 2 mps 743 mmHg 51%
    18:00 +26°C° 0.1 mm 2 mps 742 mmHg 60%
    19:00 +24°C° 0.1 mm 2 mps 742 mmHg 68%
    20:00 +21°C° 0.8 mm 2 mps 742 mmHg 74%
    21:00 +19°C° 0.8 mm 2 mps 742 mmHg 80%
    22:00 +17°C° 0.8 mm 2 mps 742 mmHg 86%
    23:00 +18°C° 0.9 mm 1 mps 742 mmHg 89%

    Tomorrow, 20 July, Saturday

    Time Temperature Precipitation Wind Pressure Humidity
    00:00 +18°C° 0.9 mm 1 mps 742 mmHg 91%
    01:00 +16°C° 0.9 mm 1 mps 742 mmHg 94%
    02:00 +16°C° 0.1 mm 1 mps 742 mmHg 95%
    03:00 +16°C° 0.1 mm 1 mps 742 mmHg 95%
    04:00 +14°C° 0.1 mm 0 mps 742 mmHg 96%
    05:00 +15°C° 0 mm 0 mps 742 mmHg 94%
    06:00 +18°C° 0 mm 1 mps 742 mmHg 93%
    07:00 +19°C° 0 mm 1 mps 742 mmHg 91%
    08:00 +21°C° 0 mm 1 mps 743 mmHg 82%
    09:00 +23°C° 0 mm 1 mps 743 mmHg 74%
    10:00 +24°C° 0 mm 2 mps 743 mmHg 65%
    11:00 +25°C° 0 mm 2 mps 743 mmHg 61%
    12:00 +27°C° 0 mm 2 mps 743 mmHg 58%
    13:00 +28°C° 0 mm 2 mps 743 mmHg 54%
    14:00 +28°C° 0 mm 2 mps 743 mmHg 54%
    15:00 +28°C° 0 mm 2 mps 743 mmHg 54%
    16:00 +28°C° 0 mm 2 mps 743 mmHg 54%
    17:00 +27°C° 0 mm 2 mps 743 mmHg 61%
    18:00 +26°C° 0 mm 2 mps 743 mmHg 68%
    19:00 +25°C° 0 mm 1 mps 743 mmHg 75%
    20:00 +23°C° 0 mm 1 mps 743 mmHg 80%
    21:00 +21°C° 0 mm 1 mps 743 mmHg 84%
    22:00 +19°C° 0 mm 2 mps 744 mmHg 89%
    23:00 +19°C° 0 mm 1 mps 743 mmHg 91%

    Day after tomorrow, 21 July, Sunday

    Time Temperature Precipitation Wind Pressure Humidity
    00:00 +18°C° 0 mm 1 mps 743 mmHg 92%
    01:00 +18°C° 0 mm 1 mps 743 mmHg 94%
    02:00 +16°C° 0 mm 1 mps 743 mmHg 95%
    03:00 +16°C° 0 mm 1 mps 743 mmHg 95%
    04:00 +15°C° 0 mm 1 mps 743 mmHg 96%
    05:00 +16°C° 0 mm 1 mps 743 mmHg 92%
    06:00 +18°C° 0 mm 2 mps 743 mmHg 88%
    07:00 +19°C° 0 mm 2 mps 743 mmHg 84%
    08:00 +20°C° 0 mm 2 mps 743 mmHg 78%
    09:00 +23°C° 0 mm 2 mps 743 mmHg 72%
    10:00 +24°C° 0 mm 3 mps 743 mmHg 66%
    11:00 +25°C° 0 mm 3 mps 743 mmHg 61%
    12:00 +26°C° 0 mm 3 mps 743 mmHg 57%
    13:00 +26°C° 0 mm 3 mps 742 mmHg 53%
    14:00 +26°C° 0 mm 3 mps 742 mmHg 53%
    15:00 +26°C° 0 mm 3 mps 742 mmHg 54%
    16:00 +26°C° 0 mm 2 mps 742 mmHg 54%
    17:00 +25°C° 0.3 mm 2 mps 742 mmHg 64%
    18:00 +23°C° 0.3 mm 2 mps 742 mmHg 74%
    19:00 +21°C° 0.3 mm 3 mps 742 mmHg 84%
    20:00 +19°C° 0 mm 2 mps 742 mmHg 88%
    21:00 +18°C° 0 mm 2 mps 742 mmHg 92%
    22:00 +17°C° 0 mm 2 mps 742 mmHg 96%
    23:00 +16°C° 0 mm 2 mps 742 mmHg 97%

    22 July, Monday

    Time Temperature Precipitation Wind Pressure Humidity
    00:00 +16°C° 0 mm 2 mps 742 mmHg 97%
    01:00 +15°C° 0 mm 2 mps 742 mmHg 97%
    02:00 +15°C° 0 mm 1 mps 742 mmHg 97%
    03:00 +14°C° 0 mm 1 mps 742 mmHg 98%
    04:00 +14°C° 0 mm 1 mps 742 mmHg 98%
    05:00 +15°C° 0 mm 1 mps 742 mmHg 96%
    06:00 +16°C° 0 mm 2 mps 742 mmHg 94%
    07:00 +17°C° 0 mm 2 mps 742 mmHg 92%
    08:00 +19°C° 0 mm 2 mps 741 mmHg 83%
    09:00 +20°C° 0 mm 2 mps 741 mmHg 75%
    10:00 +23°C° 0 mm 2 mps 741 mmHg 67%
    11:00 +23°C° 0.2 mm 2 mps 741 mmHg 65%
    12:00 +24°C° 0.2 mm 2 mps 741 mmHg 63%
    13:00 +24°C° 0.2 mm 2 mps 741 mmHg 61%
    14:00 +24°C° 0.2 mm 2 mps 741 mmHg 62%
    15:00 +24°C° 0.2 mm 3 mps 741 mmHg 63%
    16:00 +24°C° 0.2 mm 3 mps 741 mmHg 64%
    17:00 +24°C° 0.6 mm 2 mps 741 mmHg 71%
    18:00 +23°C° 0.6 mm 2 mps 741 mmHg 78%
    19:00 +22°C° 0.6 mm 1 mps 741 mmHg 85%
    20:00 +20°C° 0.6 mm 1 mps 741 mmHg 89%
    21:00 +19°C° 0.6 mm 1 mps 741 mmHg 92%
    22:00 +16°C° 0.6 mm 1 mps 741 mmHg 96%
    23:00 +16°C° 0 mm 1 mps 741 mmHg 96%

    23 July, Tuesday

    Time Temperature Precipitation Wind Pressure Humidity
    00:00 +15°C° 0 mm 2 mps 741 mmHg 97%
    01:00 +14°C° 0 mm 2 mps 740 mmHg 98%
    02:00 +14°C° 0 mm 2 mps 741 mmHg 98%
    03:00 +13°C° 0 mm 2 mps 741 mmHg 98%
    04:00 +13°C° 0 mm 1 mps 741 mmHg 98%
    05:00 +14°C° 0 mm 1 mps 741 mmHg 97%
    06:00 +15°C° 0 mm 2 mps 741 mmHg 96%
    07:00 +16°C° 0 mm 2 mps 741 mmHg 95%
    08:00 +17°C° 0 mm 2 mps 741 mmHg 88%
    09:00 +19°C° 0 mm 2 mps 741 mmHg 81%
    10:00 +20°C° 0 mm 2 mps 741 mmHg 73%
    11:00 +20°C° 0.4 mm 2 mps 742 mmHg 75%
    12:00 +21°C° 0.4 mm 2 mps 742 mmHg 77%
    13:00 +21°C° 0.4 mm 2 mps 742 mmHg 78%
    14:00 +21°C° 0.5 mm 2 mps 742 mmHg 80%
    15:00 +21°C° 0.5 mm 2 mps 742 mmHg 83%
    16:00 +21°C° 0.5 mm 2 mps 742 mmHg 85%
    17:00 +20°C° 0.2 mm 2 mps 742 mmHg 87%
    18:00 +21°C° 0.2 mm 1 mps 742 mmHg 89%
    19:00 +21°C° 0.2 mm 1 mps 742 mmHg 91%
    20:00 +20°C° 0.4 mm 1 mps 742 mmHg 93%
    21:00 +19°C° 0.4 mm 1 mps 742 mmHg 95%
    22:00 +18°C° 0.4 mm 1 mps 742 mmHg 96%
    23:00 +16°C° 0.1 mm 1 mps 742 mmHg 97%

    24 July, Wednesday

    Time Temperature Precipitation Wind Pressure Humidity
    00:00 +16°C° 0.1 mm 1 mps 742 mmHg 97%
    01:00 +16°C° 0.1 mm 1 mps 743 mmHg 97%
    02:00 +15°C° 0 mm 1 mps 743 mmHg 97%
    03:00 +15°C° 0 mm 1 mps 743 mmHg 97%
    04:00 +15°C° 0 mm 1 mps 743 mmHg 97%
    05:00 +16°C° 0 mm 1 mps 743 mmHg 96%
    06:00 +18°C° 0 mm 1 mps 744 mmHg 95%
    07:00 +19°C° 0 mm 1 mps 744 mmHg 93%
    08:00 +21°C° 0 mm 1 mps 744 mmHg 84%
    09:00 +23°C° 0 mm 1 mps 744 mmHg 76%
    10:00 +25°C° 0 mm 1 mps 745 mmHg 67%
    11:00 +25°C° 0.1 mm 1 mps 745 mmHg 65%
    12:00 +26°C° 0.1 mm 1 mps 745 mmHg 63%
    13:00 +26°C° 0.1 mm 1 mps 745 mmHg 61%
    14:00 +26°C° 0.4 mm 1 mps 745 mmHg 66%
    15:00 +25°C° 0.4 mm 1 mps 745 mmHg 71%
    16:00 +23°C° 0.4 mm 0 mps 745 mmHg 76%
    17:00 +22°C° 0.2 mm 0 mps 745 mmHg 78%
    18:00 +22°C° 0.2 mm 0 mps 745 mmHg 80%
    19:00 +22°C° 0.2 mm 0 mps 746 mmHg 83%
    20:00 +20°C° 0 mm 0 mps 746 mmHg 86%
    21:00 +19°C° 0 mm 0 mps 746 mmHg 89%
    22:00 +17°C° 0 mm 0 mps 746 mmHg 92%
    23:00 +17°C° 0 mm 0 mps 746 mmHg 93%
    Show more